Time,TemperatureF,DewpointF,PressureIn,WindDirection,WindDirectionDegrees,WindSpeedMPH,WindSpeedGustMPH,Humidity,HourlyPrecipIn,Conditions,Clouds,dailyrainin,SoftwareType,DateUTC
2013-05-01 00:01:00,50.0,33.5,29.99,West,270,7.1,15.0,53,0.00,CLR,CLR,0.00,WeatherDisplay:10.37,2013-05-01 05:01:00,
2013-05-01 00:07:00,49.8,33.8,29.99,WNW,292,9.7,16.1,54,0.00,CLR,CLR,0.00,WeatherDisplay:10.37,2013-05-01 05:07:00,
2013-05-01 00:12:00,49.6,33.7,29.99,West,270,10.0,11.5,54,0.00,CLR,CLR,0.00,WeatherDisplay:10.37,2013-05-01 05:12:00,
2013-05-01 00:17:00,49.3,33.3,30.00,NW,315,7.3,13.0,54,0.00,CLR,CLR,0.00,WeatherDisplay:10.37,2013-05-01 05:17:00,
2013-05-01 00:22:00,49.1,33.6,30.00,West,270,10.6,16.1,55,0.00,CLR,CLR,0.00,WeatherDisplay:10.37,2013-05-01 05:22:00,
2013-05-01 00:27:00,48.9,33.4,30.00,NW,315,12.5,19.6,55,0.00,CLR,CLR,0.00,WeatherDisplay:10.37,2013-05-01 05:27:00,
2013-05-01 00:33:00,48.7,33.7,30.00,West,270,9.0,11.5,56,0.00,CLR,CLR,0.00,WeatherDisplay:10.37,2013-05-01 05:33:00,
2013-05-01 00:38:00,48.6,33.6,30.00,WNW,292,9.2,13.8,56,0.00,CLR,CLR,0.00,WeatherDisplay:10.37,2013-05-01 05:38:00,
2013-05-01 00:43:00,48.4,33.4,29.99,NW,315,16.6,17.3,56,0.00,CLR,CLR,0.00,WeatherDisplay:10.37,2013-05-01 05:43:00,
2013-05-01 00:48:00,48.0,33.1,29.99,NW,315,13.7,17.3,56,0.00,CLR,CLR,0.00,WeatherDisplay:10.37,2013-05-01 05:48:00,
2013-05-01 00:53:00,48.0,33.1,30.00,WNW,292,8.5,10.4,56,0.00,CLR,CLR,0.00,WeatherDisplay:10.37,2013-05-01 05:53:00,
2013-05-01 00:58:00,47.8,32.9,30.00,NW,315,6.1,9.2,56,0.00,CLR,CLR,0.00,WeatherDisplay:10.37,2013-05-01 05:58:00,
2013-05-01 01:03:00,47.7,32.7,30.00,WNW,292,11.8,13.8,56,0.00,CLR,CLR,0.00,WeatherDisplay:10.37,2013-05-01 06:03:00,
2013-05-01 01:09:00,47.5,33.0,30.01,West,270,10.6,13.8,57,0.00,CLR,CLR,0.00,WeatherDisplay:10.37,2013-05-01 06:09:00,
2013-05-01 01:14:00,47.3,32.8,30.01,WNW,292,5.4,6.9,57,0.00,CLR,CLR,0.00,WeatherDisplay:10.37,2013-05-01 06:14:00,
2013-05-01 01:19:00,47.1,32.7,30.03,WNW,292,9.3,12.7,57,0.00,CLR,CLR,0.00,WeatherDisplay:10.37,2013-05-01 06:19:00,
2013-05-01 01:24:00,46.9,32.0,30.03,NW,315,12.5,19.6,56,0.00,CLR,CLR,0.00,WeatherDisplay:10.37,2013-05-01 06:24:00,
2013-05-01 01:29:00,46.8,31.9,30.04,NW,315,8.1,11.5,56,0.00,CLR,CLR,0.00,WeatherDisplay:10.37,2013-05-01 06:29:00,
2013-05-01 01:34:00,46.6,31.7,30.04,West,270,8.1,11.5,56,0.00,CLR,CLR,0.00,WeatherDisplay:10.37,2013-05-01 06:34:00,
2013-05-01 01:39:00,46.2,31.8,30.05,WNW,292,7.1,10.4,57,0.00,CLR,CLR,0.00,WeatherDisplay:10.37,2013-05-01 06:39:00,
2013-05-01 01:44:00,46.2,31.4,30.04,WNW,292,8.7,10.4,56,0.00,CLR,CLR,0.00,WeatherDisplay:10.37,2013-05-01 06:44:00,
2013-05-01 01:49:00,46.0,31.6,30.05,WSW,248,8.2,12.7,57,0.00,CLR,CLR,0.00,WeatherDisplay:10.37,2013-05-01 06:49:00,
2013-05-01 01:54:00,46.0,31.6,30.05,WNW,292,8.5,10.4,57,0.00,CLR,CLR,0.00,WeatherDisplay:10.37,2013-05-01 06:54:00,
2013-05-01 01:59:00,45.7,31.3,30.05,West,270,8.8,15.0,57,0.00,CLR,CLR,0.00,WeatherDisplay:10.37,2013-05-01 06:59:00,
2013-05-01 02:04:00,45.5,31.1,30.06,West,270,8.0,10.4,57,0.00,CLR,CLR,0.00,WeatherDisplay:10.37,2013-05-01 07:04:00,
2013-05-01 02:09:00,45.3,31.0,30.06,WSW,248,4.5,8.1,57,0.00,CLR,CLR,0.00,WeatherDisplay:10.37,2013-05-01 07:09:00,
2013-05-01 02:15:00,45.1,30.8,30.06,West,270,7.3,10.4,57,0.00,CLR,CLR,0.00,WeatherDisplay:10.37,2013-05-01 07:15:00,
2013-05-01 02:20:00,45.1,30.8,30.06,WNW,292,8.6,10.4,57,0.00,CLR,CLR,0.00,WeatherDisplay:10.37,2013-05-01 07:20:00,
2013-05-01 02:25:00,45.0,31.1,30.06,WNW,292,6.7,9.8,58,0.00,CLR,CLR,0.00,WeatherDisplay:10.37,2013-05-01 07:25:00,
2013-05-01 02:30:00,44.8,30.9,30.05,NW,315,7.6,11.5,58,0.00,CLR,CLR,0.00,WeatherDisplay:10.37,2013-05-01 07:30:00,
2013-05-01 02:35:00,44.6,30.7,30.06,NW,315,6.3,10.4,58,0.00,CLR,CLR,0.00,WeatherDisplay:10.37,2013-05-01 07:35:00,
2013-05-01 02:40:00,44.4,31.0,30.06,WSW,248,6.8,11.5,59,0.00,CLR,CLR,0.00,WeatherDisplay:10.37,2013-05-01 07:40:00,
2013-05-01 02:45:00,44.2,30.8,30.06,NW,315,7.6,10.4,59,0.00,CLR,CLR,0.00,WeatherDisplay:10.37,2013-05-01 07:45:00,
2013-05-01 02:51:00,44.2,31.2,30.06,West,270,6.5,9.2,60,0.00,CLR,CLR,0.00,WeatherDisplay:10.37,2013-05-01 07:51:00,
2013-05-01 02:56:00,43.9,30.9,30.07,West,270,7.1,13.6,60,0.00,CLR,CLR,0.00,WeatherDisplay:10.37,2013-05-01 07:56:00,
2013-05-01 03:01:00,43.7,31.1,30.08,NW,315,8.8,11.5,61,0.00,CLR,CLR,0.00,WeatherDisplay:10.37,2013-05-01 08:01:00,
2013-05-01 03:06:00,43.5,31.0,30.07,WNW,292,8.0,10.4,61,0.00,CLR,CLR,0.00,WeatherDisplay:10.37,2013-05-01 08:06:00,
2013-05-01 03:11:00,43.3,31.2,30.07,NW,315,10.7,13.8,62,0.00,CLR,CLR,0.00,WeatherDisplay:10.37,2013-05-01 08:11:00,
2013-05-01 03:16:00,43.2,31.0,30.08,WNW,292,8.8,12.7,62,0.00,CLR,CLR,0.00,WeatherDisplay:10.37,2013-05-01 08:16:00,
2013-05-01 03:21:00,42.6,30.9,30.08,NW,315,12.0,14.1,63,0.00,CLR,CLR,0.00,WeatherDisplay:10.37,2013-05-01 08:21:00,
2013-05-01 03:26:00,42.1,30.4,30.06,West,270,10.4,13.8,63,0.00,CLR,CLR,0.00,WeatherDisplay:10.37,2013-05-01 08:26:00,
2013-05-01 03:31:00,41.9,31.0,30.07,West,270,9.7,13.8,65,0.00,CLR,CLR,0.00,WeatherDisplay:10.37,2013-05-01 08:31:00,
2013-05-01 03:37:00,41.5,30.6,30.07,NW,315,9.5,12.7,65,0.00,CLR,CLR,0.00,WeatherDisplay:10.37,2013-05-01 08:37:00,
2013-05-01 03:42:00,41.2,30.3,30.08,NW,315,12.5,18.4,65,0.00,CLR,CLR,0.00,WeatherDisplay:10.37,2013-05-01 08:42:00,
2013-05-01 03:47:00,40.8,30.0,30.09,West,270,11.4,13.0,65,0.00,CLR,CLR,0.00,WeatherDisplay:10.37,2013-05-01 08:47:00,
2013-05-01 03:52:00,40.6,29.8,30.08,NW,315,8.6,12.7,65,0.00,CLR,CLR,0.00,WeatherDisplay:10.37,2013-05-01 08:52:00,
2013-05-01 03:57:00,40.3,29.4,30.08,West,270,10.3,16.1,65,0.00,CLR,CLR,0.00,WeatherDisplay:10.37,2013-05-01 08:57:00,
2013-05-01 04:03:00,40.1,28.9,30.08,WNW,292,11.6,14.1,64,0.00,CLR,CLR,0.00,WeatherDisplay:10.37,2013-05-01 09:03:00,
2013-05-01 04:08:00,39.9,29.1,30.08,NW,315,9.7,12.7,65,0.00,CLR,CLR,0.00,WeatherDisplay:10.37,2013-05-01 09:08:00,
2013-05-01 04:13:00,39.7,28.9,30.07,WNW,292,9.0,12.7,65,0.00,CLR,CLR,0.00,WeatherDisplay:10.37,2013-05-01 09:13:00,
2013-05-01 04:18:00,39.6,28.8,30.08,NW,315,10.9,12.7,65,0.00,CLR,CLR,0.00,WeatherDisplay:10.37,2013-05-01 09:18:00,
2013-05-01 04:23:00,39.4,29.0,30.09,West,270,7.8,10.4,66,0.00,CLR,CLR,0.00,WeatherDisplay:10.37,2013-05-01 09:23:00,
2013-05-01 04:28:00,39.4,29.0,30.10,NW,315,9.8,12.7,66,0.00,CLR,CLR,0.00,WeatherDisplay:10.37,2013-05-01 09:28:00,
2013-05-01 04:34:00,39.0,29.0,30.10,NW,315,9.0,11.5,67,0.00,CLR,CLR,0.00,WeatherDisplay:10.37,2013-05-01 09:34:00,
2013-05-01 04:39:00,39.0,29.0,30.11,WNW,292,9.0,13.8,67,0.00,CLR,CLR,0.00,WeatherDisplay:10.37,2013-05-01 09:39:00,
2013-05-01 04:44:00,38.8,28.8,30.10,WNW,292,8.0,9.2,67,0.00,CLR,CLR,0.00,WeatherDisplay:10.37,2013-05-01 09:44:00,
2013-05-01 04:49:00,38.8,28.8,30.12,WSW,248,13.2,15.0,67,0.00,CLR,CLR,0.00,WeatherDisplay:10.37,2013-05-01 09:49:00,
2013-05-01 04:54:00,38.5,28.1,30.13,NW,315,12.6,15.0,66,0.00,CLR,CLR,0.00,WeatherDisplay:10.37,2013-05-01 09:54:00,
2013-05-01 04:59:00,38.1,27.8,30.14,NW,315,9.5,12.7,66,0.00,CLR,CLR,0.00,WeatherDisplay:10.37,2013-05-01 09:59:00,
2013-05-01 05:04:00,37.9,27.2,30.14,West,270,10.8,15.0,65,0.00,CLR,CLR,0.00,WeatherDisplay:10.37,2013-05-01 10:04:00,
2013-05-01 05:09:00,37.8,27.0,30.15,NW,315,7.8,9.2,65,0.00,CLR,CLR,0.00,WeatherDisplay:10.37,2013-05-01 10:09:00,
2013-05-01 05:15:00,37.6,26.9,30.15,NW,315,9.3,15.9,65,0.00,CLR,CLR,0.00,WeatherDisplay:10.37,2013-05-01 10:15:00,
2013-05-01 05:20:00,37.2,26.2,30.15,NW,315,12.9,16.1,64,0.00,CLR,CLR,0.00,WeatherDisplay:10.37,2013-05-01 10:20:00,
2013-05-01 05:25:00,37.2,26.5,30.16,NW,315,7.9,9.2,65,0.00,CLR,CLR,0.00,WeatherDisplay:10.37,2013-05-01 10:25:00,
2013-05-01 05:30:00,37.0,26.4,30.16,NW,315,10.8,13.8,65,0.00,CLR,CLR,0.00,WeatherDisplay:10.37,2013-05-01 10:30:00,
2013-05-01 05:35:00,37.0,26.4,30.16,WNW,292,10.2,18.4,65,0.00,CLR,CLR,0.00,WeatherDisplay:10.37,2013-05-01 10:35:00,
2013-05-01 05:40:00,36.9,26.2,30.16,WNW,292,12.7,17.3,65,0.00,CLR,CLR,0.00,WeatherDisplay:10.37,2013-05-01 10:40:00,
2013-05-01 05:46:00,36.7,26.4,30.16,WSW,248,9.3,10.4,66,0.00,CLR,CLR,0.00,WeatherDisplay:10.37,2013-05-01 10:46:00,
2013-05-01 05:51:00,36.7,26.4,30.16,NW,315,10.8,13.8,66,0.00,CLR,CLR,0.00,WeatherDisplay:10.37,2013-05-01 10:51:00,
2013-05-01 05:56:00,36.5,26.2,30.16,NW,315,12.5,13.8,66,0.00,CLR,CLR,0.00,WeatherDisplay:10.37,2013-05-01 10:56:00,
2013-05-01 06:01:00,36.5,26.2,30.16,WNW,292,9.1,11.5,66,0.00,CLR,CLR,0.00,WeatherDisplay:10.37,2013-05-01 11:01:00,
2013-05-01 06:06:00,36.5,26.2,30.17,WNW,292,7.8,8.1,66,0.00,CLR,CLR,0.00,WeatherDisplay:10.37,2013-05-01 11:06:00,
2013-05-01 06:11:00,36.3,26.4,30.18,NW,315,7.8,12.7,67,0.00,CLR,CLR,0.00,WeatherDisplay:10.37,2013-05-01 11:11:00,
2013-05-01 06:16:00,36.5,26.6,30.19,NNW,338,9.2,11.5,67,0.00,CLR,CLR,0.00,WeatherDisplay:10.37,2013-05-01 11:16:00,
2013-05-01 06:21:00,36.3,26.4,30.18,WNW,292,7.9,10.4,67,0.00,CLR,CLR,0.00,WeatherDisplay:10.37,2013-05-01 11:21:00,
2013-05-01 06:27:00,36.3,26.4,30.20,WNW,292,9.7,10.4,67,0.00,CLR,CLR,0.00,WeatherDisplay:10.37,2013-05-01 11:27:00,
2013-05-01 06:32:00,36.3,26.4,30.21,WNW,292,5.6,11.5,67,0.00,CLR,CLR,0.00,WeatherDisplay:10.37,2013-05-01 11:32:00,
2013-05-01 06:37:00,36.3,26.4,30.21,WNW,292,7.5,9.2,67,0.00,CLR,CLR,0.00,WeatherDisplay:10.37,2013-05-01 11:37:00,
2013-05-01 06:42:00,36.3,26.4,30.22,WNW,292,4.3,8.1,67,0.00,CLR,CLR,0.00,WeatherDisplay:10.37,2013-05-01 11:42:00,
2013-05-01 06:47:00,36.3,26.4,30.22,WNW,292,10.3,13.8,67,0.00,CLR,CLR,0.00,WeatherDisplay:10.37,2013-05-01 11:47:00,
2013-05-01 06:52:00,36.3,26.4,30.22,WNW,292,8.2,10.4,67,0.00,CLR,CLR,0.00,WeatherDisplay:10.37,2013-05-01 11:52:00,
2013-05-01 06:57:00,36.1,26.2,30.23,West,270,7.4,10.4,67,0.00,CLR,CLR,0.00,WeatherDisplay:10.37,2013-05-01 11:57:00,
2013-05-01 07:03:00,36.1,26.2,30.24,WNW,292,9.2,11.5,67,0.00,CLR,CLR,0.00,WeatherDisplay:10.37,2013-05-01 12:03:00,
2013-05-01 07:08:00,36.0,25.3,30.24,WNW,292,7.1,11.5,65,0.00,CLR,CLR,0.00,WeatherDisplay:10.37,2013-05-01 12:08:00,
2013-05-01 07:13:00,36.0,25.3,30.25,West,270,5.2,6.9,65,0.00,CLR,CLR,0.00,WeatherDisplay:10.37,2013-05-01 12:13:00,
2013-05-01 07:18:00,35.8,25.2,30.26,WNW,292,4.5,6.3,65,0.00,CLR,CLR,0.00,WeatherDisplay:10.37,2013-05-01 12:18:00,
2013-05-01 07:24:00,35.8,25.2,30.26,NW,315,7.6,12.7,65,0.00,CLR,CLR,0.00,WeatherDisplay:10.37,2013-05-01 12:24:00,
2013-05-01 07:29:00,35.8,25.2,30.27,NNW,338,4.0,9.2,65,0.00,CLR,CLR,0.00,WeatherDisplay:10.37,2013-05-01 12:29:00,
2013-05-01 07:34:00,35.6,25.0,30.27,WNW,292,6.3,9.2,65,0.00,CLR,CLR,0.00,WeatherDisplay:10.37,2013-05-01 12:34:00,
2013-05-01 07:39:00,35.8,25.2,30.28,West,270,5.2,10.4,65,0.00,CLR,CLR,0.00,WeatherDisplay:10.37,2013-05-01 12:39:00,
2013-05-01 07:44:00,35.4,25.2,30.28,WNW,292,3.6,4.6,66,0.00,CLR,CLR,0.00,WeatherDisplay:10.37,2013-05-01 12:44:00,
2013-05-01 07:49:00,35.6,25.4,30.28,WNW,292,3.2,4.6,66,0.00,CLR,CLR,0.00,WeatherDisplay:10.37,2013-05-01 12:49:00,
2013-05-01 07:55:00,35.8,25.5,30.27,West,270,6.3,6.9,66,0.00,CLR,CLR,0.00,WeatherDisplay:10.37,2013-05-01 12:55:00,
2013-05-01 08:00:00,35.8,25.5,30.27,West,270,3.3,4.6,66,0.00,CLR,CLR,0.00,WeatherDisplay:10.37,2013-05-01 13:00:00,
2013-05-01 08:05:00,35.8,25.5,30.27,West,270,7.3,12.7,66,0.00,CLR,CLR,0.00,WeatherDisplay:10.37,2013-05-01 13:05:00,
2013-05-01 08:10:00,35.8,24.8,30.27,NW,315,6.4,12.7,64,0.00,CLR,CLR,0.00,WeatherDisplay:10.37,2013-05-01 13:10:00,
2013-05-01 08:15:00,35.8,24.8,30.27,WSW,248,8.3,10.4,64,0.00,CLR,CLR,0.00,WeatherDisplay:10.37,2013-05-01 13:15:00,
2013-05-01 08:20:00,35.8,24.8,30.28,NW,315,8.2,10.4,64,0.00,CLR,CLR,0.00,WeatherDisplay:10.37,2013-05-01 13:20:00,
2013-05-01 08:25:00,35.6,24.6,30.28,WNW,292,7.4,9.2,64,0.00,CLR,CLR,0.00,WeatherDisplay:10.37,2013-05-01 13:25:00,
2013-05-01 08:30:00,35.6,24.2,30.28,West,270,8.7,13.8,63,0.00,CLR,CLR,0.00,WeatherDisplay:10.37,2013-05-01 13:30:00,
2013-05-01 08:36:00,35.4,24.1,30.28,WNW,292,8.8,11.5,63,0.00,CLR,CLR,0.00,WeatherDisplay:10.37,2013-05-01 13:36:00,
2013-05-01 08:41:00,35.4,24.4,30.28,West,270,4.8,9.8,64,0.00,CLR,CLR,0.00,WeatherDisplay:10.37,2013-05-01 13:41:00,
2013-05-01 08:46:00,35.4,24.4,30.28,West,270,6.5,9.2,64,0.00,CLR,CLR,0.00,WeatherDisplay:10.37,2013-05-01 13:46:00,
2013-05-01 08:51:00,35.4,24.4,30.29,NNW,338,3.7,4.6,64,0.00,CLR,CLR,0.00,WeatherDisplay:10.37,2013-05-01 13:51:00,
2013-05-01 08:57:00,35.8,24.4,30.29,WNW,292,8.3,10.4,63,0.00,CLR,CLR,0.00,WeatherDisplay:10.37,2013-05-01 13:57:00,
2013-05-01 09:02:00,35.8,24.4,30.28,WNW,292,4.9,8.1,63,0.00,CLR,CLR,0.00,WeatherDisplay:10.37,2013-05-01 14:02:00,
2013-05-01 09:07:00,36.0,24.6,30.28,WNW,292,7.4,10.4,63,0.00,CLR,CLR,0.00,WeatherDisplay:10.37,2013-05-01 14:07:00,
2013-05-01 09:12:00,36.1,24.4,30.28,WSW,248,3.8,9.2,62,0.00,CLR,CLR,0.00,WeatherDisplay:10.37,2013-05-01 14:12:00,
2013-05-01 09:17:00,36.3,24.5,30.28,WNW,292,6.2,12.7,62,0.00,CLR,CLR,0.00,WeatherDisplay:10.37,2013-05-01 14:17:00,
2013-05-01 09:22:00,36.1,24.0,30.28,WNW,292,7.4,9.2,61,0.00,CLR,CLR,0.00,WeatherDisplay:10.37,2013-05-01 14:22:00,
2013-05-01 09:27:00,36.1,24.0,30.29,West,270,3.5,8.3,61,0.00,CLR,CLR,0.00,WeatherDisplay:10.37,2013-05-01 14:27:00,
2013-05-01 09:33:00,36.3,23.8,30.29,NW,315,7.7,13.8,60,0.00,CLR,CLR,0.00,WeatherDisplay:10.37,2013-05-01 14:33:00,
2013-05-01 09:38:00,36.5,23.9,30.29,WNW,292,6.8,9.2,60,0.00,CLR,CLR,0.00,WeatherDisplay:10.37,2013-05-01 14:38:00,
2013-05-01 09:43:00,37.0,24.0,30.29,West,270,7.9,9.2,59,0.00,CLR,CLR,0.00,WeatherDisplay:10.37,2013-05-01 14:43:00,
2013-05-01 09:48:00,37.4,24.0,30.29,WNW,292,8.6,11.5,58,0.00,CLR,CLR,0.00,WeatherDisplay:10.37,2013-05-01 14:48:00,
2013-05-01 09:54:00,37.8,23.5,30.28,West,270,6.1,8.1,56,0.00,CLR,CLR,0.00,WeatherDisplay:10.37,2013-05-01 14:54:00,
2013-05-01 09:59:00,38.3,24.4,30.28,West,270,8.2,8.3,57,0.00,CLR,CLR,0.00,WeatherDisplay:10.37,2013-05-01 14:59:00,
2013-05-01 10:04:00,38.3,23.5,30.28,West,270,4.3,8.1,55,0.00,CLR,CLR,0.00,WeatherDisplay:10.37,2013-05-01 15:04:00,
2013-05-01 10:09:00,38.3,24.0,30.29,NNW,338,7.4,11.5,56,0.00,CLR,CLR,0.00,WeatherDisplay:10.37,2013-05-01 15:09:00,
2013-05-01 10:14:00,38.5,24.1,30.30,WNW,292,9.7,12.7,56,0.00,CLR,CLR,0.00,WeatherDisplay:10.37,2013-05-01 15:14:00,
2013-05-01 10:19:00,38.5,23.7,30.29,WNW,292,9.8,10.4,55,0.00,CLR,CLR,0.00,WeatherDisplay:10.37,2013-05-01 15:19:00,
2013-05-01 10:25:00,38.5,23.3,30.30,WNW,292,7.6,10.4,54,0.00,CLR,CLR,0.00,WeatherDisplay:10.37,2013-05-01 15:25:00,
2013-05-01 10:30:00,38.3,23.1,30.30,WNW,292,11.1,15.0,54,0.00,CLR,CLR,0.00,WeatherDisplay:10.37,2013-05-01 15:30:00,
2013-05-01 10:35:00,38.3,23.5,30.31,NW,315,5.9,10.4,55,0.00,CLR,CLR,0.00,WeatherDisplay:10.37,2013-05-01 15:35:00,
2013-05-01 10:40:00,38.1,22.9,30.31,NW,315,7.7,10.4,54,0.00,CLR,CLR,0.00,WeatherDisplay:10.37,2013-05-01 15:40:00,
2013-05-01 10:45:00,37.9,22.8,30.32,WNW,292,9.7,15.0,54,0.00,CLR,CLR,0.00,WeatherDisplay:10.37,2013-05-01 15:45:00,
2013-05-01 10:50:00,37.6,22.9,30.32,WNW,292,6.4,10.4,55,0.00,CLR,CLR,0.00,WeatherDisplay:10.37,2013-05-01 15:50:00,
2013-05-01 10:55:00,37.8,23.5,30.33,West,270,6.0,9.2,56,0.00,CLR,CLR,0.00,WeatherDisplay:10.37,2013-05-01 15:55:00,
2013-05-01 11:01:00,37.9,23.6,30.34,WNW,292,9.2,11.5,56,0.00,CLR,CLR,0.00,WeatherDisplay:10.37,2013-05-01 16:01:00,
2013-05-01 11:06:00,37.9,23.6,30.34,WNW,292,8.6,9.6,56,0.00,CLR,CLR,0.00,WeatherDisplay:10.37,2013-05-01 16:06:00,
2013-05-01 11:11:00,37.9,23.6,30.34,West,270,7.0,9.2,56,0.00,CLR,CLR,0.00,WeatherDisplay:10.37,2013-05-01 16:11:00,
2013-05-01 11:16:00,37.6,23.3,30.35,NW,315,13.5,15.0,56,0.00,CLR,CLR,0.00,WeatherDisplay:10.37,2013-05-01 16:16:00,
2013-05-01 11:21:00,37.6,24.1,30.35,WNW,292,8.4,9.2,58,0.00,CLR,CLR,0.00,WeatherDisplay:10.37,2013-05-01 16:21:00,
2013-05-01 11:27:00,37.9,24.0,30.35,WNW,292,4.5,11.5,57,0.00,CLR,CLR,0.00,WeatherDisplay:10.37,2013-05-01 16:27:00,
2013-05-01 11:32:00,38.5,24.6,30.34,NNW,338,6.7,15.0,57,0.00,CLR,CLR,0.00,WeatherDisplay:10.37,2013-05-01 16:32:00,
2013-05-01 11:37:00,38.8,24.5,30.34,West,270,7.9,9.2,56,0.00,CLR,CLR,0.00,WeatherDisplay:10.37,2013-05-01 16:37:00,
2013-05-01 11:42:00,39.4,25.0,30.34,WNW,292,10.6,12.7,56,0.00,CLR,CLR,0.00,WeatherDisplay:10.37,2013-05-01 16:42:00,
2013-05-01 11:47:00,39.9,25.0,30.34,NW,315,6.4,9.2,55,0.00,CLR,CLR,0.00,WeatherDisplay:10.37,2013-05-01 16:47:00,
2013-05-01 11:52:00,40.6,25.7,30.33,WNW,292,9.9,13.8,55,0.00,CLR,CLR,0.00,WeatherDisplay:10.37,2013-05-01 16:52:00,
2013-05-01 11:57:00,40.8,25.4,30.33,West,270,7.6,11.5,54,0.00,CLR,CLR,0.00,WeatherDisplay:10.37,2013-05-01 16:57:00,
2013-05-01 12:02:00,41.2,25.8,30.33,NW,315,13.3,15.4,54,0.00,CLR,CLR,0.00,WeatherDisplay:10.37,2013-05-01 17:02:00,
2013-05-01 12:08:00,40.8,25.4,30.32,NNW,338,8.2,10.5,54,0.00,CLR,CLR,0.00,WeatherDisplay:10.37,2013-05-01 17:08:00,
2013-05-01 12:13:00,41.9,26.9,30.34,NW,315,9.6,11.6,55,0.00,CLR,CLR,0.00,WeatherDisplay:10.37,2013-05-01 17:13:00,
2013-05-01 12:18:00,42.6,26.2,30.33,West,270,11.0,11.5,52,0.00,CLR,CLR,0.00,WeatherDisplay:10.37,2013-05-01 17:18:00,
2013-05-01 12:24:00,42.6,26.7,30.33,West,270,8.4,13.6,53,0.00,CLR,CLR,0.00,WeatherDisplay:10.37,2013-05-01 17:24:00,
2013-05-01 12:29:00,42.4,26.0,30.34,WNW,292,7.0,9.6,52,0.00,CLR,CLR,0.00,WeatherDisplay:10.37,2013-05-01 17:29:00,
2013-05-01 12:34:00,42.4,26.5,30.34,NW,315,10.0,13.8,53,0.00,CLR,CLR,0.00,WeatherDisplay:10.37,2013-05-01 17:34:00,
2013-05-01 12:39:00,42.6,26.2,30.34,NW,315,12.0,12.7,52,0.00,CLR,CLR,0.00,WeatherDisplay:10.37,2013-05-01 17:39:00,
2013-05-01 12:44:00,42.6,26.7,30.34,West,270,10.2,13.8,53,0.00,CLR,CLR,0.00,WeatherDisplay:10.37,2013-05-01 17:44:00,
2013-05-01 12:49:00,43.0,26.5,30.34,North,0,11.4,11.5,52,0.00,CLR,CLR,0.00,WeatherDisplay:10.37,2013-05-01 17:49:00,
2013-05-01 12:55:00,43.0,27.0,30.34,WNW,292,9.9,10.4,53,0.00,CLR,CLR,0.00,WeatherDisplay:10.37,2013-05-01 17:55:00,
2013-05-01 13:00:00,43.0,26.5,30.34,WNW,292,8.7,13.8,52,0.00,CLR,CLR,0.00,WeatherDisplay:10.37,2013-05-01 18:00:00,
2013-05-01 13:05:00,43.2,27.2,30.34,WNW,292,7.9,16.8,53,0.00,CLR,CLR,0.00,WeatherDisplay:10.37,2013-05-01 18:05:00,
2013-05-01 13:10:00,42.8,26.4,30.35,NW,315,12.0,16.1,52,0.00,CLR,CLR,0.00,WeatherDisplay:10.37,2013-05-01 18:10:00,
2013-05-01 13:15:00,42.6,27.1,30.35,WNW,292,11.0,17.3,54,0.00,CLR,CLR,0.00,WeatherDisplay:10.37,2013-05-01 18:15:00,
2013-05-01 13:21:00,43.0,27.0,30.34,NW,315,11.0,14.3,53,0.00,CLR,CLR,0.00,WeatherDisplay:10.37,2013-05-01 18:21:00,
2013-05-01 13:26:00,43.5,27.0,30.35,NW,315,11.8,16.1,52,0.00,CLR,CLR,0.00,WeatherDisplay:10.37,2013-05-01 18:26:00,
2013-05-01 13:31:00,43.5,27.0,30.35,NW,315,12.3,16.1,52,0.00,CLR,CLR,0.00,WeatherDisplay:10.37,2013-05-01 18:31:00,
2013-05-01 13:36:00,43.7,27.2,30.35,West,270,15.2,19.6,52,0.00,CLR,CLR,0.00,WeatherDisplay:10.37,2013-05-01 18:36:00,
2013-05-01 13:41:00,43.3,26.9,30.35,WNW,292,8.8,9.2,52,0.00,CLR,CLR,0.00,WeatherDisplay:10.37,2013-05-01 18:41:00,
2013-05-01 13:47:00,43.3,26.9,30.35,West,270,8.7,10.4,52,0.00,CLR,CLR,0.00,WeatherDisplay:10.37,2013-05-01 18:47:00,
2013-05-01 13:52:00,43.3,26.9,30.36,NW,315,9.0,9.2,52,0.00,CLR,CLR,0.00,WeatherDisplay:10.37,2013-05-01 18:52:00,
2013-05-01 13:57:00,43.5,26.6,30.36,NW,315,10.4,16.5,51,0.00,CLR,CLR,0.00,WeatherDisplay:10.37,2013-05-01 18:57:00,
2013-05-01 14:02:00,44.1,27.5,30.36,NNW,338,12.4,15.0,52,0.00,CLR,CLR,0.00,WeatherDisplay:10.37,2013-05-01 19:02:00,
2013-05-01 14:07:00,44.4,26.9,30.36,West,270,11.7,17.3,50,0.00,CLR,CLR,0.00,WeatherDisplay:10.37,2013-05-01 19:07:00,
2013-05-01 14:12:00,44.4,26.9,30.36,North,0,6.9,10.4,50,0.00,CLR,CLR,0.00,WeatherDisplay:10.37,2013-05-01 19:12:00,
2013-05-01 14:18:00,44.4,27.4,30.37,WNW,292,11.1,13.8,51,0.00,CLR,CLR,0.00,WeatherDisplay:10.37,2013-05-01 19:18:00,
2013-05-01 14:23:00,44.4,26.4,30.36,NNW,338,11.1,12.7,49,0.00,CLR,CLR,0.00,WeatherDisplay:10.37,2013-05-01 19:23:00,
2013-05-01 14:28:00,44.4,26.4,30.36,WNW,292,8.7,8.7,49,0.00,CLR,CLR,0.00,WeatherDisplay:10.37,2013-05-01 19:28:00,
2013-05-01 14:33:00,44.4,25.9,30.36,West,270,8.7,9.2,48,0.00,CLR,CLR,0.00,WeatherDisplay:10.37,2013-05-01 19:33:00,
2013-05-01 14:38:00,44.2,26.3,30.37,NNW,338,11.3,18.4,49,0.00,CLR,CLR,0.00,WeatherDisplay:10.37,2013-05-01 19:38:00,
2013-05-01 14:43:00,44.4,25.9,30.37,North,0,10.0,12.7,48,0.00,CLR,CLR,0.00,WeatherDisplay:10.37,2013-05-01 19:43:00,
2013-05-01 14:48:00,45.0,25.9,30.37,WNW,292,9.3,14.1,47,0.00,CLR,CLR,0.00,WeatherDisplay:10.37,2013-05-01 19:48:00,
2013-05-01 14:54:00,44.8,25.8,30.37,NNW,338,10.4,13.8,47,0.00,CLR,CLR,0.00,WeatherDisplay:10.37,2013-05-01 19:54:00,
2013-05-01 14:59:00,44.8,25.8,30.37,WNW,292,8.7,13.8,47,0.00,CLR,CLR,0.00,WeatherDisplay:10.37,2013-05-01 19:59:00,
2013-05-01 15:04:00,45.1,26.6,30.38,WNW,292,10.2,18.4,48,0.00,CLR,CLR,0.00,WeatherDisplay:10.37,2013-05-01 20:04:00,
2013-05-01 15:09:00,45.1,26.1,30.37,NNW,338,10.8,13.8,47,0.00,CLR,CLR,0.00,WeatherDisplay:10.37,2013-05-01 20:09:00,
2013-05-01 15:14:00,44.8,25.8,30.38,NW,315,11.9,15.0,47,0.00,CLR,CLR,0.00,WeatherDisplay:10.37,2013-05-01 20:14:00,
2013-05-01 15:19:00,44.8,26.3,30.37,NW,315,9.9,12.7,48,0.00,CLR,CLR,0.00,WeatherDisplay:10.37,2013-05-01 20:19:00,
2013-05-01 15:24:00,45.1,26.1,30.38,NNW,338,13.3,18.4,47,0.00,CLR,CLR,0.00,WeatherDisplay:10.37,2013-05-01 20:24:00,
2013-05-01 15:30:00,45.0,25.9,30.38,NNW,338,9.1,18.4,47,0.00,CLR,CLR,0.00,WeatherDisplay:10.37,2013-05-01 20:30:00,
2013-05-01 15:35:00,45.1,26.6,30.38,West,270,11.0,12.7,48,0.00,CLR,CLR,0.00,WeatherDisplay:10.37,2013-05-01 20:35:00,
2013-05-01 15:40:00,45.0,26.4,30.38,NNW,338,10.8,11.5,48,0.00,CLR,CLR,0.00,WeatherDisplay:10.37,2013-05-01 20:40:00,
2013-05-01 15:45:00,44.6,26.1,30.38,NNW,338,11.6,17.3,48,0.00,CLR,CLR,0.00,WeatherDisplay:10.37,2013-05-01 20:45:00,
2013-05-01 15:51:00,44.4,25.9,30.38,NNW,338,9.7,13.2,48,0.00,CLR,CLR,0.00,WeatherDisplay:10.37,2013-05-01 20:51:00,
2013-05-01 15:56:00,45.1,26.6,30.38,NW,315,11.2,15.0,48,0.00,CLR,CLR,0.00,WeatherDisplay:10.37,2013-05-01 20:56:00,
2013-05-01 16:01:00,45.5,26.4,30.38,WNW,292,6.9,11.5,47,0.00,CLR,CLR,0.00,WeatherDisplay:10.37,2013-05-01 21:01:00,
2013-05-01 16:06:00,45.9,26.7,30.38,NW,315,10.7,13.8,47,0.00,CLR,CLR,0.00,WeatherDisplay:10.37,2013-05-01 21:06:00,
2013-05-01 16:11:00,46.2,26.6,30.39,WNW,292,9.3,16.1,46,0.00,CLR,CLR,0.00,WeatherDisplay:10.37,2013-05-01 21:11:00,
2013-05-01 16:17:00,46.0,26.9,30.38,WNW,292,7.9,9.2,47,0.00,CLR,CLR,0.00,WeatherDisplay:10.37,2013-05-01 21:17:00,
2013-05-01 16:22:00,46.0,26.4,30.39,WNW,292,10.0,11.5,46,0.00,CLR,CLR,0.00,WeatherDisplay:10.37,2013-05-01 21:22:00,
2013-05-01 16:27:00,46.2,26.0,30.39,NW,315,12.7,17.3,45,0.00,CLR,CLR,0.00,WeatherDisplay:10.37,2013-05-01 21:27:00,
2013-05-01 16:32:00,46.2,26.6,30.39,NNW,338,9.0,11.5,46,0.00,CLR,CLR,0.00,WeatherDisplay:10.37,2013-05-01 21:32:00,
2013-05-01 16:38:00,46.0,26.4,30.39,North,0,11.9,16.1,46,0.00,CLR,CLR,0.00,WeatherDisplay:10.37,2013-05-01 21:38:00,
2013-05-01 16:43:00,45.7,25.5,30.40,NW,315,14.8,19.6,45,0.00,CLR,CLR,0.00,WeatherDisplay:10.37,2013-05-01 21:43:00,
2013-05-01 16:48:00,45.7,26.1,30.41,WNW,292,12.6,15.0,46,0.00,CLR,CLR,0.00,WeatherDisplay:10.37,2013-05-01 21:48:00,
2013-05-01 16:53:00,45.7,26.1,30.40,WNW,292,13.1,17.3,46,0.00,CLR,CLR,0.00,WeatherDisplay:10.37,2013-05-01 21:53:00,
2013-05-01 16:58:00,45.3,25.7,30.41,NW,315,10.3,12.7,46,0.00,CLR,CLR,0.00,WeatherDisplay:10.37,2013-05-01 21:58:00,
2013-05-01 17:03:00,45.1,26.1,30.41,NW,315,8.5,11.5,47,0.00,CLR,CLR,0.00,WeatherDisplay:10.37,2013-05-01 22:03:00,
2013-05-01 17:08:00,45.0,25.9,30.41,WNW,292,9.8,11.5,47,0.00,CLR,CLR,0.00,WeatherDisplay:10.37,2013-05-01 22:08:00,
2013-05-01 17:13:00,45.0,25.9,30.41,NNW,338,11.9,13.8,47,0.00,CLR,CLR,0.00,WeatherDisplay:10.37,2013-05-01 22:13:00,
2013-05-01 17:19:00,45.3,26.3,30.41,WNW,292,11.4,13.8,47,0.00,CLR,CLR,0.00,WeatherDisplay:10.37,2013-05-01 22:19:00,
2013-05-01 17:24:00,45.7,26.6,30.41,WNW,292,12.9,18.4,47,0.00,CLR,CLR,0.00,WeatherDisplay:10.37,2013-05-01 22:24:00,
2013-05-01 17:29:00,45.7,26.6,30.41,NNW,338,10.0,15.0,47,0.00,CLR,CLR,0.00,WeatherDisplay:10.37,2013-05-01 22:29:00,
2013-05-01 17:34:00,46.0,26.4,30.41,West,270,13.1,16.1,46,0.00,CLR,CLR,0.00,WeatherDisplay:10.37,2013-05-01 22:34:00,
2013-05-01 17:39:00,46.0,26.4,30.41,NW,315,9.8,12.7,46,0.00,CLR,CLR,0.00,WeatherDisplay:10.37,2013-05-01 22:39:00,
2013-05-01 17:45:00,46.0,25.9,30.41,WNW,292,10.9,16.1,45,0.00,CLR,CLR,0.00,WeatherDisplay:10.37,2013-05-01 22:45:00,
2013-05-01 17:50:00,46.2,26.6,30.41,NW,315,10.8,13.8,46,0.00,CLR,CLR,0.00,WeatherDisplay:10.37,2013-05-01 22:50:00,
2013-05-01 17:55:00,46.6,26.9,30.41,NW,315,11.0,13.8,46,0.00,CLR,CLR,0.00,WeatherDisplay:10.37,2013-05-01 22:55:00,
2013-05-01 18:00:00,46.6,26.9,30.41,North,0,11.0,16.1,46,0.00,CLR,CLR,0.00,WeatherDisplay:10.37,2013-05-01 23:00:00,
2013-05-01 18:06:00,46.6,26.4,30.42,NW,315,13.6,17.3,45,0.00,CLR,CLR,0.00,WeatherDisplay:10.37,2013-05-01 23:06:00,
2013-05-01 18:11:00,46.0,26.4,30.42,North,0,6.9,11.5,46,0.00,CLR,CLR,0.00,WeatherDisplay:10.37,2013-05-01 23:11:00,
2013-05-01 18:16:00,46.0,26.4,30.41,WNW,292,8.5,12.7,46,0.00,CLR,CLR,0.00,WeatherDisplay:10.37,2013-05-01 23:16:00,
2013-05-01 18:21:00,45.7,26.1,30.42,North,0,9.1,12.7,46,0.00,CLR,CLR,0.00,WeatherDisplay:10.37,2013-05-01 23:21:00,
2013-05-01 18:26:00,46.0,26.4,30.43,NNW,338,9.6,10.4,46,0.00,CLR,CLR,0.00,WeatherDisplay:10.37,2013-05-01 23:26:00,
2013-05-01 18:32:00,46.0,26.4,30.42,NNW,338,6.2,6.9,46,0.00,CLR,CLR,0.00,WeatherDisplay:10.37,2013-05-01 23:32:00,
2013-05-01 18:37:00,46.2,26.6,30.42,NNW,338,7.8,9.6,46,0.00,CLR,CLR,0.00,WeatherDisplay:10.37,2013-05-01 23:37:00,
2013-05-01 18:42:00,46.2,26.0,30.42,NW,315,12.3,18.4,45,0.00,CLR,CLR,0.00,WeatherDisplay:10.37,2013-05-01 23:42:00,
2013-05-01 18:47:00,46.0,25.9,30.43,NNE,22,9.3,11.5,45,0.00,CLR,CLR,0.00,WeatherDisplay:10.37,2013-05-01 23:47:00,
2013-05-01 18:52:00,46.2,26.0,30.42,NNE,22,9.8,10.4,45,0.00,CLR,CLR,0.00,WeatherDisplay:10.37,2013-05-01 23:52:00,
2013-05-01 18:57:00,46.0,25.9,30.43,WNW,292,8.2,10.4,45,0.00,CLR,CLR,0.00,WeatherDisplay:10.37,2013-05-01 23:57:00,
2013-05-01 19:02:00,45.7,25.5,30.43,NW,315,8.4,11.5,45,0.00,CLR,CLR,0.00,WeatherDisplay:10.37,2013-05-02 00:02:00,
2013-05-01 19:08:00,45.7,26.1,30.43,NNW,338,5.4,10.4,46,0.00,CLR,CLR,0.00,WeatherDisplay:10.37,2013-05-02 00:08:00,
2013-05-01 19:13:00,45.5,25.9,30.44,West,270,12.9,12.9,46,0.00,CLR,CLR,0.00,WeatherDisplay:10.37,2013-05-02 00:13:00,
2013-05-01 19:18:00,45.5,25.9,30.44,NW,315,11.6,13.8,46,0.00,CLR,CLR,0.00,WeatherDisplay:10.37,2013-05-02 00:18:00,
2013-05-01 19:23:00,45.7,26.1,30.44,NNW,338,9.5,12.7,46,0.00,CLR,CLR,0.00,WeatherDisplay:10.37,2013-05-02 00:23:00,
2013-05-01 19:28:00,45.5,25.9,30.44,WNW,292,8.2,11.5,46,0.00,CLR,CLR,0.00,WeatherDisplay:10.37,2013-05-02 00:28:00,
2013-05-01 19:34:00,45.1,25.6,30.45,NW,315,10.5,12.7,46,0.00,CLR,CLR,0.00,WeatherDisplay:10.37,2013-05-02 00:34:00,
2013-05-01 19:39:00,44.8,25.2,30.45,NNW,338,10.5,13.8,46,0.00,CLR,CLR,0.00,WeatherDisplay:10.37,2013-05-02 00:39:00,
2013-05-01 19:44:00,44.4,25.4,30.45,NNW,338,10.6,12.7,47,0.00,CLR,CLR,0.00,WeatherDisplay:10.37,2013-05-02 00:44:00,
2013-05-01 19:50:00,44.2,25.3,30.44,NW,315,5.8,8.1,47,0.00,CLR,CLR,0.00,WeatherDisplay:10.37,2013-05-02 00:50:00,
2013-05-01 19:55:00,44.1,25.6,30.45,NW,315,6.9,9.2,48,0.00,CLR,CLR,0.00,WeatherDisplay:10.37,2013-05-02 00:55:00,
2013-05-01 20:00:00,43.9,25.4,30.45,NW,315,6.4,9.2,48,0.00,CLR,CLR,0.00,WeatherDisplay:10.37,2013-05-02 01:00:00,
2013-05-01 20:05:00,43.5,25.6,30.45,NW,315,7.3,9.2,49,0.00,CLR,CLR,0.00,WeatherDisplay:10.37,2013-05-02 01:05:00,
2013-05-01 20:10:00,43.2,25.3,30.45,NNW,338,8.0,11.5,49,0.00,CLR,CLR,0.00,WeatherDisplay:10.37,2013-05-02 01:10:00,
2013-05-01 20:15:00,42.8,25.4,30.45,NNW,338,9.2,12.7,50,0.00,CLR,CLR,0.00,WeatherDisplay:10.37,2013-05-02 01:15:00,
2013-05-01 20:20:00,42.6,25.3,30.45,NNW,338,9.9,11.5,50,0.00,CLR,CLR,0.00,WeatherDisplay:10.37,2013-05-02 01:20:00,
2013-05-01 20:25:00,42.3,24.9,30.46,WNW,292,9.5,12.7,50,0.00,CLR,CLR,0.00,WeatherDisplay:10.37,2013-05-02 01:25:00,
2013-05-01 20:30:00,42.1,25.2,30.46,NW,315,9.6,12.7,51,0.00,CLR,CLR,0.00,WeatherDisplay:10.37,2013-05-02 01:30:00,
2013-05-01 20:35:00,41.9,25.1,30.47,NW,315,6.0,6.9,51,0.00,CLR,CLR,0.00,WeatherDisplay:10.37,2013-05-02 01:35:00,
2013-05-01 20:41:00,41.7,25.4,30.47,NNW,338,9.8,11.5,52,0.00,CLR,CLR,0.00,WeatherDisplay:10.37,2013-05-02 01:41:00,
2013-05-01 20:46:00,41.5,25.7,30.47,NW,315,9.4,12.7,53,0.00,CLR,CLR,0.00,WeatherDisplay:10.37,2013-05-02 01:46:00,
2013-05-01 20:51:00,41.5,25.7,30.47,NW,315,10.0,13.8,53,0.00,CLR,CLR,0.00,WeatherDisplay:10.37,2013-05-02 01:51:00,
2013-05-01 20:56:00,41.4,25.9,30.48,WNW,292,11.0,12.7,54,0.00,CLR,CLR,0.00,WeatherDisplay:10.37,2013-05-02 01:56:00,
2013-05-01 21:01:00,41.2,25.8,30.47,NW,315,6.9,8.1,54,0.00,CLR,CLR,0.00,WeatherDisplay:10.37,2013-05-02 02:01:00,
2013-05-01 21:06:00,41.0,26.1,30.47,NW,315,12.5,16.1,55,0.00,CLR,CLR,0.00,WeatherDisplay:10.37,2013-05-02 02:06:00,
2013-05-01 21:12:00,40.8,25.9,30.48,NW,315,10.9,17.3,55,0.00,CLR,CLR,0.00,WeatherDisplay:10.37,2013-05-02 02:12:00,
2013-05-01 21:17:00,40.8,25.9,30.48,NNW,338,7.3,10.4,55,0.00,CLR,CLR,0.00,WeatherDisplay:10.37,2013-05-02 02:17:00,
2013-05-01 21:22:00,40.6,25.7,30.48,NW,315,11.9,16.1,55,0.00,CLR,CLR,0.00,WeatherDisplay:10.37,2013-05-02 02:22:00,
2013-05-01 21:27:00,40.6,26.2,30.49,WNW,292,6.5,9.2,56,0.00,CLR,CLR,0.00,WeatherDisplay:10.37,2013-05-02 02:27:00,
2013-05-01 21:32:00,40.3,25.4,30.49,NW,315,8.5,16.1,55,0.00,CLR,CLR,0.00,WeatherDisplay:10.37,2013-05-02 02:32:00,
2013-05-01 21:38:00,40.1,25.6,30.49,West,270,8.6,9.2,56,0.00,CLR,CLR,0.00,WeatherDisplay:10.37,2013-05-02 02:38:00,
2013-05-01 21:43:00,39.9,25.5,30.48,NNW,338,7.0,9.2,56,0.00,CLR,CLR,0.00,WeatherDisplay:10.37,2013-05-02 02:43:00,
2013-05-01 21:48:00,39.9,25.5,30.48,WNW,292,7.6,13.8,56,0.00,CLR,CLR,0.00,WeatherDisplay:10.37,2013-05-02 02:48:00,
2013-05-01 21:53:00,39.9,25.5,30.48,NW,315,6.5,8.1,56,0.00,CLR,CLR,0.00,WeatherDisplay:10.37,2013-05-02 02:53:00,
2013-05-01 21:58:00,39.9,25.9,30.48,North,0,7.1,9.2,57,0.00,CLR,CLR,0.00,WeatherDisplay:10.37,2013-05-02 02:58:00,
2013-05-01 22:03:00,39.9,25.5,30.49,NNE,22,5.3,9.2,56,0.00,CLR,CLR,0.00,WeatherDisplay:10.37,2013-05-02 03:03:00,
2013-05-01 22:09:00,39.9,25.5,30.49,NNW,338,6.5,8.1,56,0.00,CLR,CLR,0.00,WeatherDisplay:10.37,2013-05-02 03:09:00,
2013-05-01 22:14:00,39.7,25.3,30.49,NNE,22,8.3,10.4,56,0.00,CLR,CLR,0.00,WeatherDisplay:10.37,2013-05-02 03:14:00,
2013-05-01 22:19:00,39.7,25.3,30.48,NNE,22,6.5,8.1,56,0.00,CLR,CLR,0.00,WeatherDisplay:10.37,2013-05-02 03:19:00,
2013-05-01 22:24:00,39.7,25.3,30.48,NW,315,7.9,10.4,56,0.00,CLR,CLR,0.00,WeatherDisplay:10.37,2013-05-02 03:24:00,
2013-05-01 22:29:00,39.7,25.3,30.48,WNW,292,8.0,10.4,56,0.00,CLR,CLR,0.00,WeatherDisplay:10.37,2013-05-02 03:29:00,
2013-05-01 22:34:00,39.6,25.6,30.49,NNW,338,5.4,8.1,57,0.00,CLR,CLR,0.00,WeatherDisplay:10.37,2013-05-02 03:34:00,
2013-05-01 22:39:00,39.4,25.4,30.49,NW,315,7.7,8.1,57,0.00,CLR,CLR,0.00,WeatherDisplay:10.37,2013-05-02 03:39:00,
2013-05-01 22:45:00,39.4,25.4,30.49,WNW,292,8.3,11.5,57,0.00,CLR,CLR,0.00,WeatherDisplay:10.37,2013-05-02 03:45:00,
2013-05-01 22:50:00,39.4,25.4,30.49,NNW,338,5.2,8.1,57,0.00,CLR,CLR,0.00,WeatherDisplay:10.37,2013-05-02 03:50:00,
2013-05-01 22:55:00,39.4,25.8,30.49,NE,45,9.3,10.4,58,0.00,CLR,CLR,0.00,WeatherDisplay:10.37,2013-05-02 03:55:00,
2013-05-01 23:00:00,39.4,25.8,30.50,NNW,338,7.3,10.4,58,0.00,CLR,CLR,0.00,WeatherDisplay:10.37,2013-05-02 04:00:00,
2013-05-01 23:01:00,39.4,25.8,30.50,NNW,338,6.6,10.4,58,0.00,CLR,CLR,0.00,WeatherDisplay:10.37,2013-05-02 04:01:00,
2013-05-01 23:02:00,39.4,25.8,30.49,NW,315,9.0,11.5,58,0.00,CLR,CLR,0.00,WeatherDisplay:10.37,2013-05-02 04:02:00,
2013-05-01 23:04:00,39.4,25.8,30.50,North,0,8.0,10.4,58,0.00,CLR,CLR,0.00,WeatherDisplay:10.37,2013-05-02 04:04:00,
2013-05-01 23:09:00,39.4,25.8,30.50,NNW,338,10.0,11.5,58,0.00,CLR,CLR,0.00,WeatherDisplay:10.37,2013-05-02 04:09:00,
2013-05-01 23:15:00,39.4,25.8,30.49,NW,315,13.1,18.4,58,0.00,CLR,CLR,0.00,WeatherDisplay:10.37,2013-05-02 04:15:00,
2013-05-01 23:20:00,39.0,25.5,30.49,NNW,338,8.2,11.5,58,0.00,CLR,CLR,0.00,WeatherDisplay:10.37,2013-05-02 04:20:00,
2013-05-01 23:25:00,39.0,25.9,30.49,WNW,292,7.1,10.4,59,0.00,CLR,CLR,0.00,WeatherDisplay:10.37,2013-05-02 04:25:00,
2013-05-01 23:30:00,39.0,26.3,30.49,NW,315,7.3,9.2,60,0.00,CLR,CLR,0.00,WeatherDisplay:10.37,2013-05-02 04:30:00,
2013-05-01 23:36:00,38.8,26.1,30.50,NW,315,11.7,17.3,60,0.00,CLR,CLR,0.00,WeatherDisplay:10.37,2013-05-02 04:36:00,
2013-05-01 23:41:00,38.5,26.2,30.50,NW,315,11.9,17.3,61,0.00,CLR,CLR,0.00,WeatherDisplay:10.37,2013-05-02 04:41:00,
2013-05-01 23:46:00,38.3,26.4,30.51,North,0,10.8,15.0,62,0.00,CLR,CLR,0.00,WeatherDisplay:10.37,2013-05-02 04:46:00,
2013-05-01 23:51:00,38.1,26.2,30.51,NW,315,10.1,15.0,62,0.00,CLR,CLR,0.00,WeatherDisplay:10.37,2013-05-02 04:51:00,
2013-05-01 23:56:00,37.9,26.1,30.52,NNW,338,14.5,18.4,62,0.00,CLR,CLR,0.00,WeatherDisplay:10.37,2013-05-02 04:56:00,